1488956400.86,60822,7.94,73400.5,-6.41,-10.19,-11.19,0,*5C
1488956402.08,60823,7.94,73396.8,-6.41,-10.05,-11.19,0,*50
1488956403.3,60824,7.94,73398.5,-6.41,-9.97,-11.15,0,*68
1488956404.53,60825,7.94,73398.0,-6.41,-9.93,-11.01,0,*68
1488956405.78,60826,7.94,73400.0,-6.41,-10.09,-11.07,0,*56
1488956407.0,60827,7.94,73400.5,-6.41,-10.05,-10.93,0,*57
1488956408.24,60828,7.94,73400.3,-6.41,-10.19,-11.01,0,*5F
1488956409.48,60829,7.94,73402.0,-6.41,-10.19,-10.93,0,*54
1488956410.71,60830,7.94,73398.5,-6.43,-10.23,-10.79,0,*53
1488956411.94,60831,7.94,73400.0,-6.43,-10.23,-10.79,0,*52
1488956413.17,60832,7.94,73396.8,-6.43,-10.09,-10.63,0,*52
1488956414.4,60833,7.94,73400.0,-6.43,-10.09,-10.67,0,*57
1488956415.63,60834,7.94,73398.0,-6.43,-10.01,-10.67,0,*58
1488956416.86,60835,7.94,73398.3,-6.43,-10.09,-10.67,0,*51
1488956418.11,60836,7.94,73398.8,-6.43,-9.83,-10.67,0,*68
1488956419.36,60837,7.94,73402.3,-6.43,-9.83,-10.63,0,*6D
1488956420.61,60838,7.94,73400.0,-6.43,-9.83,-10.67,0,*66
1488956421.84,60839,7.94,73398.5,-6.43,-9.67,-10.41,0,*69
1488956423.06,60840,7.94,73400.0,-6.43,-9.57,-10.35,0,*67
1488956424.3,60841,7.94,73400.3,-6.43,-9.45,-10.15,0,*67
1488956425.52,60842,7.94,73402.0,-6.43,-9.53,-10.09,0,*6E
1488956426.74,60843,7.94,73398.8,-6.43,-9.31,-9.83,0,*51
1488956427.94,60844,7.94,73398.0,-6.43,-9.31,-9.67,0,*5C
1488956429.16,60845,7.94,73404.0,-6.43,-9.41,-9.71,0,*5D
1488956430.38,60846,7.94,73402.5,-6.43,-9.53,-9.71,0,*5D
1488956431.61,60847,7.94,73400.0,-6.45,-9.79,-10.15,0,*68
1488956432.85,60848,7.94,73400.8,-6.43,-9.79,-10.41,0,*60
1488956434.06,60849,7.94,73400.5,-6.43,-9.71,-10.35,0,*6A
1488956435.28,60850,7.94,73402.3,-6.43,-9.53,-10.23,0,*65
1488956436.53,60851,7.94,73402.5,-6.45,-9.45,-10.09,0,*6D
1488956437.75,60852,7.94,73400.3,-6.43,-9.41,-9.97,0,*53
1488956438.98,60853,7.94,73398.5,-6.43,-9.01,-9.57,0,*5A
1488956440.18,60854,7.94,73400.5,-6.43,-8.85,-9.27,0,*57
1488956441.38,60855,7.94,73396.3,-6.43,-8.85,-9.05,0,*56
1488956442.57,60856,7.94,73396.5,-6.43,-8.75,-8.97,0,*50
1488956443.78,60857,7.94,73400.8,-6.43,-8.89,-9.01,0,*5C
1488956444.98,60858,7.94,73398.0,-6.43,-8.85,-8.97,0,*51
1488956446.17,60859,7.94,73398.0,-6.43,-8.97,-8.97,0,*53
1488956447.37,60860,7.94,73402.3,-6.43,-8.89,-8.97,0,*56
1488956448.62,60861,7.94,73400.8,-6.45,-9.01,-9.15,0,*5B
1488956449.84,60862,7.94,73400.8,-6.43,-8.97,-9.15,0,*50
1488956451.05,60863,7.94,73404.3,-6.43,-9.01,-9.05,0,*5E
1488956452.24,60864,7.94,73400.0,-6.43,-8.97,-9.05,0,*57
1488956453.43,60865,7.94,73404.0,-6.43,-8.97,-9.05,0,*56
1488956454.67,60866,7.94,73402.3,-6.41,-9.01,-9.01,0,*5D
1488956455.94,60867,7.94,73398.3,-6.41,-9.15,-9.15,0,*5C
1488956457.2,60868,7.94,73396.5,-6.41,-9.15,-9.27,0,*52
1488956458.42,60869,7.94,73396.0,-6.43,-9.15,-9.19,0,*5C
1488956459.64,60870,7.94,73398.8,-6.45,-9.27,-9.31,0,*59
1488956460.86,60871,7.94,73400.8,-6.43,-9.27,-9.41,0,*59
1488956462.08,60872,7.94,73398.5,-6.43,-9.19,-9.41,0,*57
1488956463.31,60873,7.94,73406.5,-6.43,-9.15,-9.27,0,*5A
1488956464.5,60874,7.94,73398.8,-6.43,-9.19,-9.31,0,*56
1488956465.7,60875,7.94,73400.3,-6.43,-9.05,-9.27,0,*5D
1488956466.92,60876,7.94,73398.8,-6.43,-9.27,-9.41,0,*5E
1488956468.14,60877,7.94,73398.3,-6.43,-9.31,-9.53,0,*5B
1488956469.37,60878,7.94,73398.0,-6.43,-9.27,-9.53,0,*53
1488956470.59,60879,7.94,73400.8,-6.41,-8.97,-9.27,0,*59
1488956471.84,60880,7.94,73400.8,-6.41,-8.93,-9.15,0,*5A
1488956473.07,60881,7.94,73402.3,-6.41,-8.85,-9.01,0,*59
1488956474.29,60882,7.88,73396.5,-6.41,-8.97,-9.23,0,*59
1488956475.52,60883,7.94,73398.5,-6.41,-8.85,-9.01,0,*5B
1488956476.75,60884,7.94,73402.3,-6.41,-8.85,-8.97,0,*52
1488956477.99,60885,7.94,73400.5,-6.41,-8.67,-8.81,0,*58
1488956479.2,60886,7.94,73402.0,-6.41,-8.59,-8.71,0,*59
1488956480.41,60887,7.94,73400.5,-6.41,-8.67,-8.67,0,*52
1488956481.63,60888,7.94,73400.8,-6.41,-8.67,-8.85,0,*51
1488956482.84,60889,7.94,73398.5,-6.39,-8.71,-8.85,0,*58
1488956484.06,60890,7.94,73400.8,-6.39,-8.81,-8.93,0,*58
1488956485.28,60891,7.88,73396.8,-6.41,-8.67,-8.85,0,*59
1488956486.5,60892,7.94,73398.0,-6.39,-8.81,-8.93,0,*5A
1488956487.73,60893,7.94,73396.8,-6.41,-8.85,-8.97,0,*54
1488956488.97,60894,7.94,73400.5,-6.41,-8.81,-8.93,0,*53
1488956490.22,60895,7.94,73396.8,-6.41,-8.81,-8.85,0,*55
1488956491.46,60896,7.94,73400.3,-6.41,-8.81,-8.85,0,*56
1488956492.69,60897,7.94,73402.8,-6.41,-8.71,-8.85,0,*58
1488956493.92,60898,7.94,73396.5,-6.41,-8.59,-8.85,0,*5D
1488956495.14,60899,7.94,73396.5,-6.41,-8.85,-8.93,0,*5A
1488956496.34,60900,7.94,73398.5,-6.39,-8.67,-8.85,0,*5F
1488956497.56,60901,7.94,73396.8,-6.39,-8.55,-8.81,0,*5B
1488956498.75,60902,7.94,73398.3,-6.39,-8.59,-8.71,0,*5B
1488956499.94,60903,7.94,73402.8,-6.39,-8.67,-8.71,0,*57
1488956501.14,60904,7.94,73402.0,-6.39,-8.59,-8.71,0,*5D
1488956502.35,60905,7.88,73396.0,-6.41,-8.45,-8.67,0,*59
1488956503.57,60906,7.94,73398.5,-6.41,-8.45,-8.59,0,*57
1488956504.76,60907,7.94,73396.3,-6.39,-8.33,-8.41,0,*51
1488956505.96,60908,7.94,73396.0,-6.39,-8.45,-8.45,0,*5B
1488956507.15,60909,7.94,73398.5,-6.39,-8.45,-8.55,0,*5B
1488956508.35,60910,7.94,73396.5,-6.39,-8.41,-8.45,0,*56
1488956509.54,60911,7.94,73400.5,-6.39,-8.41,-8.33,0,*56
1488956510.73,60912,7.94,73398.3,-6.39,-8.21,-8.29,0,*58
1488956511.92,60913,7.94,73398.8,-6.39,-8.33,-8.41,0,*54
1488956513.11,60914,7.94,73402.0,-6.39,-8.33,-8.33,0,*56
1488956514.32,60915,7.94,73400.8,-6.41,-8.21,-8.17,0,*5D
1488956515.52,60916,7.94,73400.8,-6.39,-8.17,-8.21,0,*51
1488956516.71,60917,7.94,73398.5,-6.39,-8.21,-8.29,0,*5D
1488956517.9,60918,7.94,73402.5,-6.39,-8.33,-8.29,0,*51
1488956519.1,60919,7.94,73402.8,-6.39,-8.41,-8.41,0,*5B
1488956520.29,60920,7.94,73402.0,-6.39,-8.29,-8.33,0,*5A
1488956521.51,60921,7.94,73402.3,-6.37,-8.37,-8.37,0,*5E
1488956522.7,60922,7.94,73402.3,-6.39,-8.33,-8.33,0,*53
1488956523.89,60923,7.94,73400.3,-6.39,-8.33,-8.29,0,*59
1488956525.08,60924,7.94,73402.3,-6.39,-8.41,-8.41,0,*55
1488956526.28,60925,7.94,73402.0,-6.39,-8.45,-8.41,0,*50
1488956527.52,60926,7.94,73398.5,-6.37,-8.51,-8.41,0,*58
1488956528.74,60927,7.94,73396.8,-6.37,-8.41,-8.37,0,*59
1488956529.99,60928,7.94,73402.0,-6.37,-8.51,-8.41,0,*56
1488956531.19,60929,7.94,73398.3,-6.39,-8.45,-8.45,0,*58
1488956532.38,60930,7.94,73398.5,-6.39,-8.41,-8.33,0,*55
1488956533.57,60931,7.94,73400.0,-6.39,-8.33,-8.29,0,*5A
1488956534.76,60932,7.94,73400.0,-6.39,-8.29,-8.41,0,*5C
1488956535.96,60933,7.94,73402.3,-6.39,-8.41,-8.29,0,*5D
1488956537.15,60934,7.94,73400.3,-6.39,-8.41,-8.33,0,*51
1488956538.34,60935,7.94,73400.8,-6.39,-8.33,-8.29,0,*5E
1488956539.53,60936,7.94,73398.8,-6.39,-8.33,-8.29,0,*5D
1488956540.72,60937,7.94,73400.0,-6.39,-8.29,-8.29,0,*57
1488956541.92,60938,7.94,73400.5,-6.35,-8.37,-8.37,0,*54
1488956543.16,60939,7.94,73396.5,-6.37,-8.51,-8.41,0,*56
1488956544.38,60940,7.94,73402.5,-6.37,-8.37,-8.41,0,*58
1488956545.57,60941,7.88,73398.8,-6.39,-8.29,-8.29,0,*56
1488956546.76,60942,7.94,73400.0,-6.39,-8.33,-8.33,0,*55
1488956547.96,60943,7.94,73396.3,-6.39,-8.41,-8.41,0,*54
1488956549.15,60944,7.94,73402.3,-6.39,-8.45,-8.41,0,*57
1488956550.35,60945,7.94,73400.8,-6.39,-8.41,-8.29,0,*5C
1488956551.56,60946,7.88,73398.0,-6.37,-8.29,-8.25,0,*53
1488956552.75,60947,7.94,73400.3,-6.35,-8.25,-8.33,0,*5B
1488956553.95,60948,7.94,73398.3,-6.35,-8.37,-8.33,0,*57
1488956555.16,60949,7.94,73400.5,-6.37,-8.41,-8.41,0,*50
1488956556.35,60950,7.94,73398.3,-6.35,-8.37,-8.33,0,*5E
1488956557.57,60951,7.94,73398.8,-6.37,-8.37,-8.29,0,*56
1488956558.78,60952,7.94,73398.0,-6.37,-8.29,-8.25,0,*56
1488956560.0,60953,7.88,73396.5,-6.37,-8.37,-8.29,0,*54
1488956561.25,60954,7.94,73402.0,-6.37,-8.51,-8.37,0,*5C
1488956562.44,60955,7.94,73402.0,-6.35,-8.33,-8.25,0,*58
1488956563.63,60956,7.94,73398.0,-6.35,-8.33,-8.25,0,*5B
1488956564.86,60957,7.94,73400.0,-6.35,-8.51,-8.37,0,*5D
1488956566.08,60958,7.94,73400.5,-6.37,-8.55,-8.41,0,*55
1488956567.27,60959,7.94,73400.0,-6.35,-8.37,-8.33,0,*57
1488956568.5,60960,7.94,73400.8,-6.35,-8.51,-8.37,0,*59
1488956569.72,60961,7.94,73396.3,-6.35,-8.51,-8.45,0,*5D
1488956570.93,60962,7.94,73398.3,-6.35,-8.45,-8.37,0,*5E
1488956572.11,60963,7.94,73398.8,-6.35,-8.33,-8.25,0,*5D
1488956573.34,60964,7.94,73398.3,-6.35,-8.51,-8.37,0,*5D
1488956574.54,60965,7.94,73400.0,-6.35,-8.45,-8.33,0,*5D
1488956575.75,60966,7.94,73400.0,-6.31,-8.51,-8.33,0,*5F
1488956577.0,60967,7.94,73402.3,-6.33,-8.51,-8.37,0,*58
1488956578.23,60968,7.94,73400.8,-6.33,-8.59,-8.37,0,*5F
1488956579.48,60969,7.94,73404.0,-6.33,-8.71,-8.51,0,*54
1488956580.7,60970,7.94,73402.0,-6.33,-8.89,-8.75,0,*5D
1488956581.96,60971,7.94,73400.5,-6.33,-9.15,-9.01,0,*5A
1488956583.2,60972,7.94,73400.3,-6.33,-9.27,-9.15,0,*5D
1488956584.42,60973,7.94,73396.3,-6.33,-9.27,-9.19,0,*50
1488956585.67,60974,7.94,73400.0,-6.33,-9.19,-9.15,0,*56
1488956586.94,60975,7.94,73400.0,-6.33,-9.15,-9.15,0,*5B
1488956588.17,60976,7.94,73402.3,-6.31,-9.11,-9.23,0,*5B
1488956589.39,60977,7.94,73400.5,-6.33,-9.19,-9.27,0,*54
1488956590.63,60978,7.94,73400.5,-6.33,-9.27,-9.41,0,*56
1488956591.88,60979,7.94,73402.3,-6.31,-9.41,-9.61,0,*57
1488956593.13,60980,7.94,73400.0,-6.31,-9.37,-9.53,0,*51
1488956594.36,60981,7.94,73404.5,-6.31,-9.27,-9.53,0,*51
1488956595.6,60982,7.94,73406.5,-6.31,-9.37,-9.61,0,*52
1488956596.85,60983,7.94,73400.0,-6.33,-9.45,-9.71,0,*55
1488956598.09,60984,7.94,73398.5,-6.33,-9.31,-9.57,0,*55
1488956599.32,60985,7.94,73402.5,-6.31,-8.97,-9.37,0,*5D
1488956600.54,60986,7.94,73402.8,-6.33,-9.01,-9.31,0,*54
1488956601.76,60987,7.94,73402.8,-6.31,-8.85,-9.15,0,*5C
1488956602.99,60988,7.94,73402.8,-6.33,-8.85,-8.93,0,*5E
1488956604.2,60989,7.94,73398.0,-6.31,-8.59,-8.81,0,*5F
1488956605.38,60990,7.94,73396.8,-6.31,-8.59,-8.67,0,*5F
1488956606.57,60991,7.94,73396.3,-6.31,-8.55,-8.67,0,*52
1488956607.76,60992,7.88,73398.3,-6.31,-8.55,-8.67,0,*51
1488956608.94,60993,7.94,73398.8,-6.31,-8.67,-8.67,0,*51
1488956610.14,60994,7.94,73402.3,-6.31,-8.71,-8.71,0,*56
1488956611.37,60995,7.94,73400.8,-6.33,-8.85,-8.89,0,*59
1488956612.6,60996,7.94,73400.8,-6.33,-8.85,-8.89,0,*5A
1488956613.82,60997,7.94,73400.5,-6.31,-8.81,-8.89,0,*5D
1488956615.01,60998,7.94,73402.0,-6.31,-8.67,-8.85,0,*56
1488956616.23,60999,7.94,73398.3,-6.31,-8.67,-8.81,0,*53
1488956617.44,61000,7.94,73400.3,-6.33,-8.45,-8.71,0,*56
1488956618.65,61001,7.94,73396.3,-6.29,-8.29,-8.55,0,*50
1488956619.86,61002,7.94,73402.8,-6.29,-8.41,-8.55,0,*5D
1488956621.05,61003,7.94,73396.8,-6.31,-8.17,-8.29,0,*5D
1488956622.27,61004,7.94,73398.8,-6.29,-8.17,-8.29,0,*53
1488956623.48,61005,7.94,73400.5,-6.29,-8.33,-8.45,0,*5E
1488956624.68,61006,7.94,73400.8,-6.25,-8.29,-8.29,0,*50
1488956625.89,61007,7.94,73402.3,-6.29,-8.29,-8.29,0,*5D
1488956627.09,61008,7.94,73402.5,-6.29,-8.33,-8.33,0,*52
1488956628.29,61009,7.94,73404.0,-6.25,-8.25,-8.25,0,*5F
1488956629.5,61010,7.94,73400.0,-6.29,-8.33,-8.21,0,*58
1488956630.72,61011,7.94,73402.5,-6.29,-8.55,-8.45,0,*5B
1488956631.92,61012,7.94,73402.3,-6.25,-8.55,-8.55,0,*55
1488956633.13,61013,7.94,73400.0,-6.29,-8.55,-8.55,0,*58
1488956634.34,61014,7.94,73402.0,-6.25,-8.41,-8.37,0,*52
1488956635.54,61015,7.94,73400.5,-6.25,-8.41,-8.41,0,*52
1488956636.75,61016,7.94,73402.3,-6.29,-8.33,-8.41,0,*58
1488956637.96,61017,7.94,73398.0,-6.25,-8.41,-8.37,0,*51
1488956639.18,61018,7.94,73402.0,-6.29,-8.41,-8.45,0,*57
1488956640.39,61019,7.94,73398.8,-6.29,-8.45,-8.59,0,*5F
1488956641.6,61020,7.94,73402.3,-6.29,-8.55,-8.55,0,*58
1488956642.85,61021,7.94,73402.5,-6.25,-8.51,-8.51,0,*55
1488956644.06,61022,7.94,73402.8,-6.25,-8.37,-8.37,0,*56
1488956645.26,61023,7.94,73400.3,-6.25,-8.37,-8.41,0,*56
1488956646.49,61024,7.94,73398.8,-6.25,-8.51,-8.37,0,*50
1488956647.72,61025,7.94,73396.8,-6.25,-8.51,-8.41,0,*50
1488956648.97,61026,7.94,73396.0,-6.25,-8.51,-8.51,0,*52
1488956650.2,61027,7.94,73402.3,-6.25,-8.51,-8.41,0,*52
1488956651.4,61028,7.94,73396.0,-6.25,-8.41,-8.29,0,*52
1488956652.6,61029,7.94,73402.8,-6.25,-8.25,-8.17,0,*5C
1488956653.83,61030,7.94,73402.5,-6.25,-8.17,-8.11,0,*53
1488956655.05,61031,7.94,73400.0,-6.25,-8.25,-8.11,0,*53
1488956656.27,61032,7.94,73402.3,-6.21,-8.33,-8.11,0,*53
1488956657.5,61033,7.94,73402.3,-6.23,-8.63,-8.37,0,*51
1488956658.72,61034,7.94,73396.5,-6.23,-8.67,-8.41,0,*53
1488956659.96,61035,7.94,73402.3,-6.23,-8.81,-8.55,0,*5F
1488956661.19,61036,7.94,73400.0,-6.23,-8.85,-8.63,0,*5D
1488956662.39,61037,7.94,73400.5,-6.21,-8.89,-8.63,0,*52
1488956663.61,61038,7.94,73402.8,-6.23,-8.85,-8.75,0,*54
1488956664.81,61039,7.88,73396.5,-6.21,-8.89,-8.71,0,*5F
1488956666.04,61040,7.94,73402.8,-6.23,-9.19,-8.97,0,*53
1488956667.32,61041,7.94,73402.0,-6.23,-9.37,-9.11,0,*51
1488956668.54,61042,7.94,73402.3,-6.21,-9.27,-9.15,0,*55
1488956669.73,61043,7.88,73400.5,-6.21,-9.27,-9.31,0,*52
1488956671.01,61044,7.94,73402.0,-6.23,-9.45,-9.45,0,*50
1488956672.26,61045,7.94,73400.5,-6.21,-9.41,-9.53,0,*50
1488956673.54,61046,7.94,73400.0,-6.23,-9.45,-9.61,0,*54
1488956674.76,61047,7.94,73402.8,-6.21,-9.31,-9.45,0,*52
1488956676.0,61048,7.94,73402.3,-6.21,-9.01,-9.45,0,*5E
1488956677.22,61049,7.94,73404.5,-6.21,-9.19,-9.45,0,*56
1488956678.47,61050,7.94,73404.5,-6.23,-9.23,-9.49,0,*59
1488956679.73,61051,7.94,73404.5,-6.21,-9.15,-9.41,0,*57
1488956680.96,61052,7.94,73404.8,-6.21,-9.27,-9.45,0,*51
1488956682.18,61053,7.94,73400.5,-6.21,-9.11,-9.31,0,*56
1488956683.38,61054,7.94,73402.5,-6.21,-8.93,-9.27,0,*5D
1488956684.64,61055,7.94,73404.3,-6.21,-9.15,-9.45,0,*57
1488956685.84,61056,7.94,73402.5,-6.21,-8.93,-9.31,0,*58
1488956687.04,61057,7.94,73402.0,-6.21,-8.93,-9.31,0,*59
1488956688.29,61058,7.94,73400.8,-6.23,-8.85,-9.11,0,*51
1488956689.49,61059,7.94,73402.3,-6.21,-8.63,-8.89,0,*5A
1488956690.72,61060,7.94,73402.8,-6.21,-8.71,-8.81,0,*5B
1488956691.94,61061,7.94,73402.5,-6.19,-8.59,-8.71,0,*54
1488956693.16,61062,7.94,73398.8,-6.19,-8.59,-8.63,0,*54
1488956694.4,61063,7.94,73398.5,-6.19,-9.01,-9.01,0,*5C
1488956695.6,61064,7.94,73402.0,-6.21,-9.05,-9.05,0,*50
1488956696.8,61065,7.94,73402.5,-6.21,-8.93,-8.93,0,*51
1488956698.03,61066,7.94,73402.8,-6.21,-9.15,-9.05,0,*53
1488956699.26,61067,7.94,73402.5,-6.21,-9.15,-9.05,0,*52
1488956700.49,61068,7.94,73400.3,-6.21,-9.01,-9.15,0,*59
1488956701.72,61069,7.94,73402.5,-6.23,-9.05,-9.19,0,*52
1488956702.92,61070,7.94,73400.3,-6.17,-8.75,-8.89,0,*53
1488956704.12,61071,7.94,73400.8,-6.21,-9.01,-9.27,0,*50
1488956705.35,61072,7.94,73400.0,-6.21,-8.89,-9.15,0,*53
1488956706.58,61073,7.94,73406.0,-6.19,-8.93,-9.27,0,*53
1488956707.82,61074,7.94,73400.8,-6.19,-8.93,-9.27,0,*54
1488956709.05,61075,7.94,73402.3,-6.19,-8.93,-9.19,0,*58
1488956710.29,61076,7.94,73400.3,-6.19,-8.59,-8.81,0,*5D
1488956711.54,61077,7.94,73398.8,-6.19,-8.59,-8.81,0,*5C
1488956712.77,61078,7.94,73400.0,-6.19,-8.71,-8.93,0,*5A
1488956714.02,61079,7.94,73400.5,-6.19,-8.63,-8.81,0,*5B
1488956715.25,61080,7.94,73400.5,-6.19,-8.63,-8.75,0,*56
1488956716.47,61081,7.94,73400.3,-6.19,-8.45,-8.63,0,*54
1488956717.69,61082,7.94,73402.5,-6.19,-8.33,-8.45,0,*52
1488956718.89,61083,7.94,73400.3,-6.17,-8.29,-8.41,0,*52
1488956720.13,61084,7.94,73400.5,-6.19,-8.51,-8.59,0,*5D
1488956721.36,61085,7.94,73402.3,-6.19,-8.59,-8.59,0,*54
1488956722.59,61086,7.94,73400.3,-6.19,-8.37,-8.45,0,*52
1488956723.82,61087,7.94,73404.8,-6.19,-8.37,-8.45,0,*53
1488956725.0,61088,7.94,73400.3,-6.17,-8.33,-8.33,0,*57
1488956726.19,61089,7.94,73402.3,-6.17,-8.33,-8.33,0,*56
1488956727.38,61090,7.94,73400.8,-6.17,-8.41,-8.29,0,*50
1488956728.61,61091,7.94,73400.0,-6.19,-8.37,-8.33,0,*55
1488956729.83,61092,7.94,73402.5,-6.19,-8.33,-8.37,0,*56
1488956731.03,61093,7.94,73402.5,-6.17,-8.41,-8.33,0,*58
1488956732.21,61094,7.94,73402.0,-6.17,-8.33,-8.33,0,*5A
1488956733.4,61095,7.94,73402.5,-6.17,-8.33,-8.29,0,*50
1488956734.63,61096,7.94,73400.0,-6.19,-8.45,-8.37,0,*53
1488956735.84,61097,7.94,73402.0,-6.13,-8.37,-8.37,0,*5D
1488956737.04,61098,7.94,73400.0,-6.17,-8.41,-8.41,0,*56
1488956738.27,61099,7.88,73398.0,-6.19,-8.37,-8.45,0,*5C
1488956739.45,61100,7.94,73402.3,-6.17,-8.33,-8.33,0,*56
1488956740.64,61101,7.94,73400.8,-6.17,-8.29,-8.33,0,*5C
1488956741.84,61102,7.94,73398.5,-6.17,-8.45,-8.41,0,*50
1488956743.04,61103,7.94,73400.3,-6.13,-8.25,-8.29,0,*5D
1488956744.23,61104,7.94,73398.8,-6.13,-8.29,-8.25,0,*5A
1488956745.43,61105,7.94,73402.8,-6.13,-8.25,-8.25,0,*57
1488956746.64,61106,7.94,73400.3,-6.13,-8.37,-8.37,0,*54
1488956747.84,61107,7.94,73398.5,-6.13,-8.25,-8.25,0,*55
1488956749.03,61108,7.94,73402.3,-6.17,-8.17,-8.17,0,*5E
1488956750.26,61109,7.94,73400.3,-6.17,-8.07,-8.21,0,*5B
1488956751.46,61110,7.94,73398.5,-6.13,-8.17,-8.25,0,*52
1488956752.68,61111,7.94,73402.0,-6.13,-8.17,-8.11,0,*54
1488956753.88,61112,7.94,73402.8,-6.13,-8.29,-8.25,0,*5D
1488956755.07,61113,7.94,73400.8,-6.13,-8.29,-8.29,0,*50
1488956756.27,61114,7.88,73396.3,-6.13,-8.25,-8.29,0,*5B
1488956757.47,61115,7.94,73398.3,-6.13,-8.25,-8.25,0,*56
1488956758.67,61116,7.94,73400.0,-6.13,-8.25,-8.25,0,*55
1488956759.86,61117,7.94,73398.5,-6.13,-8.17,-8.25,0,*55
1488956761.06,61118,7.94,73402.3,-6.13,-8.37,-8.29,0,*54
1488956762.26,61119,7.94,73404.3,-6.13,-8.25,-8.25,0,*5A
1488956763.46,61120,7.94,73400.0,-6.13,-8.37,-8.29,0,*5F
1488956764.66,61121,7.94,73402.3,-6.13,-8.37,-8.25,0,*52
1488956765.86,61122,7.94,73400.0,-6.13,-8.29,-8.17,0,*5F
1488956767.05,61123,7.94,73396.8,-6.13,-8.29,-8.25,0,*5F
1488956768.25,61124,7.94,73400.8,-6.13,-8.55,-8.41,0,*51
1488956769.45,61125,7.94,73402.5,-6.13,-8.41,-8.29,0,*5B
1488956770.65,61126,7.94,73400.3,-6.13,-8.37,-8.17,0,*54
1488956771.85,61127,7.94,73400.3,-6.13,-8.37,-8.29,0,*58
1488956773.07,61128,7.94,73402.5,-6.13,-8.51,-8.41,0,*59
1488956774.28,61129,7.94,73402.3,-6.13,-8.63,-8.41,0,*59
1488956775.5,61130,7.94,73400.5,-6.13,-8.63,-8.51,0,*50
1488956776.72,61131,7.94,73404.0,-6.13,-8.81,-8.63,0,*5C
1488956777.92,61132,7.94,73402.5,-6.13,-8.85,-8.71,0,*58
1488956779.14,61133,7.94,73402.3,-6.13,-8.81,-8.71,0,*5D
1488956780.35,61134,7.94,73402.5,-6.13,-8.81,-8.67,0,*5D
1488956781.58,61135,7.94,73406.5,-6.11,-8.97,-8.85,0,*55
1488956782.81,61136,7.94,73402.5,-6.11,-8.97,-8.85,0,*56
1488956784.06,61137,7.94,73400.3,-6.11,-9.05,-9.11,0,*51
1488956785.29,61138,7.94,73402.5,-6.11,-9.23,-9.23,0,*5B
1488956786.5,61139,7.94,73400.8,-6.11,-9.23,-9.31,0,*59
1488956787.73,61140,7.94,73400.8,-6.11,-9.23,-9.31,0,*57
1488956789.01,61141,7.94,73402.3,-6.11,-9.11,-9.45,0,*54
1488956790.24,61142,7.94,73400.0,-6.11,-8.85,-9.19,0,*52
1488956791.48,61143,7.94,73400.0,-6.11,-8.81,-8.97,0,*50
1488956792.68,61144,7.94,73400.5,-6.13,-8.67,-8.85,0,*5E
1488956793.89,61145,7.94,73402.3,-6.13,-8.71,-8.85,0,*58
1488956795.11,61146,7.94,73402.5,-6.11,-8.55,-8.63,0,*57
1488956796.36,61147,7.94,73402.5,-6.11,-8.51,-8.63,0,*52
1488956797.61,61148,7.94,73402.0,-6.13,-8.51,-8.51,0,*5E
1488956798.86,61149,7.94,73400.3,-6.11,-8.41,-8.51,0,*5C
1488956800.08,61150,7.94,73396.3,-6.11,-8.41,-8.55,0,*50
1488956801.3,61151,7.94,73400.5,-6.09,-8.51,-8.59,0,*55
1488956802.52,61152,7.94,73398.8,-6.09,-8.51,-8.59,0,*56
1488956803.71,61153,7.94,73402.8,-6.09,-8.33,-8.45,0,*5E
1488956804.91,61154,7.94,73400.5,-6.09,-8.45,-8.59,0,*55
1488956806.13,61155,7.94,73400.8,-6.11,-8.55,-8.71,0,*56
1488956807.32,61156,7.94,73402.0,-6.09,-8.45,-8.59,0,*57
1488956808.57,61157,7.94,73404.8,-6.11,-8.51,-8.55,0,*56
1488956809.79,61158,7.94,73402.8,-6.09,-8.45,-8.51,0,*51
1488956810.99,61159,7.94,73404.3,-6.09,-8.37,-8.41,0,*54
1488956812.21,61160,7.94,73402.5,-6.09,-8.45,-8.51,0,*5A
1488956813.46,61161,7.94,73400.5,-6.09,-8.51,-8.51,0,*5E
1488956814.65,61162,7.94,73402.3,-6.09,-8.33,-8.45,0,*5C
1488956815.88,61163,7.94,73400.3,-6.11,-8.41,-8.41,0,*55
1488956817.08,61164,7.94,73402.8,-6.09,-8.37,-8.45,0,*5E
1488956818.35,61165,7.94,73400.8,-6.07,-8.51,-8.51,0,*54
1488956819.55,61166,7.94,73402.3,-6.09,-8.45,-8.45,0,*59
1488956820.77,61167,7.94,73402.0,-6.09,-8.59,-8.51,0,*50
1488956821.97,61168,7.94,73400.8,-6.09,-8.59,-8.45,0,*5A
1488956823.19,61169,7.94,73400.8,-6.09,-8.63,-8.51,0,*57
1488956824.39,61170,7.94,73402.5,-6.09,-8.63,-8.63,0,*5E
1488956825.61,61171,7.94,73402.3,-6.07,-8.63,-8.63,0,*51
1488956826.8,61172,7.94,73398.8,-6.09,-8.75,-8.75,0,*5C
1488956828.02,61173,7.94,73400.3,-6.09,-8.81,-8.89,0,*55
1488956829.22,61174,7.94,73400.0,-6.09,-8.75,-8.75,0,*5A
1488956830.44,61175,7.94,73398.3,-6.07,-8.89,-8.75,0,*56
1488956831.66,61176,7.94,73400.3,-6.07,-8.63,-8.59,0,*5F
1488956832.88,61177,7.94,73404.3,-6.07,-8.75,-8.67,0,*54
1488956834.11,61178,7.94,73398.5,-6.07,-8.89,-9.01,0,*59
1488956835.32,61179,7.94,73400.5,-6.05,-8.85,-9.01,0,*56
1488956836.54,61180,7.94,73398.3,-6.07,-8.63,-8.93,0,*50
1488956837.76,61181,7.94,73398.8,-6.07,-8.59,-8.75,0,*50
1488956839.0,61182,7.94,73402.3,-6.07,-8.59,-8.81,0,*58
1488956840.22,61183,7.94,73400.0,-6.05,-8.63,-8.81,0,*52
1488956841.44,61184,7.94,73406.3,-6.05,-8.51,-8.59,0,*51
1488956842.69,61185,7.94,73402.3,-6.07,-8.51,-8.63,0,*5B
1488956843.91,61186,7.94,73400.8,-6.07,-8.63,-8.75,0,*5E
1488956845.13,61187,7.94,73400.0,-6.07,-8.59,-8.63,0,*51
1488956846.35,61188,7.94,73400.8,-6.07,-8.63,-8.63,0,*57
1488956847.57,61189,7.94,73402.5,-6.07,-8.59,-8.59,0,*56
1488956848.81,61190,7.94,73400.3,-6.07,-8.45,-8.51,0,*5B
1488956850.06,61191,7.94,73398.5,-6.07,-8.33,-8.51,0,*5B
1488956851.25,61192,7.94,73402.3,-6.05,-8.33,-8.41,0,*5B
1488956852.47,61193,7.94,73396.0,-6.07,-8.33,-8.45,0,*5C
1488956853.66,61194,7.94,73396.5,-6.05,-8.33,-8.45,0,*59
1488956854.85,61195,7.94,73396.8,-6.05,-8.29,-8.41,0,*57
1488956856.05,61196,7.94,73400.5,-6.05,-8.21,-8.45,0,*58
1488956857.24,61197,7.94,73398.3,-6.05,-8.21,-8.29,0,*53
1488956858.42,61198,7.94,73400.0,-6.05,-8.33,-8.33,0,*54
1488956859.62,61199,7.94,73402.5,-6.05,-8.21,-8.29,0,*5D
1488956860.81,61200,7.94,73404.0,-6.01,-8.41,-8.41,0,*52
1488956862.01,61201,7.94,73400.3,-6.01,-8.37,-8.37,0,*53
1488956863.2,61202,7.94,73398.5,-6.01,-8.37,-8.29,0,*5F
1488956864.42,61203,7.94,73400.0,-6.01,-8.17,-8.11,0,*57
1488956865.64,61204,7.94,73400.3,-6.01,-8.29,-8.11,0,*5D
1488956866.83,61205,7.94,73406.0,-6.01,-8.29,-8.17,0,*5A
1488956868.03,61206,7.94,73402.8,-6.01,-8.41,-8.37,0,*55
1488956869.22,61207,7.94,73404.5,-6.01,-8.41,-8.41,0,*55
1488956870.44,61208,7.94,73400.0,-6.01,-8.51,-8.41,0,*5B
1488956871.64,61209,7.94,73402.0,-6.01,-8.41,-8.41,0,*5B
1488956872.85,61210,7.94,73400.5,-5.99,-8.41,-8.41,0,*51
1488956874.05,61211,7.94,73400.8,-6.01,-8.37,-8.37,0,*52
1488956875.25,61212,7.94,73402.3,-6.01,-8.41,-8.41,0,*51
1488956876.45,61213,7.94,73400.5,-6.01,-8.41,-8.37,0,*51
1488956877.64,61214,7.94,73402.8,-6.01,-8.41,-8.41,0,*57
1488956878.84,61215,7.94,73404.5,-6.01,-8.55,-8.41,0,*53
1488956880.02,61216,7.94,73404.0,-6.01,-8.67,-8.59,0,*58
1488956881.24,61217,7.94,73398.3,-6.01,-8.59,-8.51,0,*5C
1488956882.46,61218,7.94,73404.5,-6.01,-8.55,-8.51,0,*5F
1488956883.73,61219,7.94,73400.8,-5.99,-8.51,-8.51,0,*58
1488956884.92,61220,7.94,73400.8,-6.01,-8.67,-8.59,0,*5D
1488956886.13,61221,7.94,73400.8,-5.99,-8.59,-8.59,0,*53
1488956887.32,61222,7.94,73402.0,-6.01,-8.67,-8.71,0,*55
1488956888.53,61223,7.94,73402.8,-6.01,-8.51,-8.55,0,*57
1488956889.75,61224,7.94,73406.8,-6.01,-8.51,-8.55,0,*50
1488956890.98,61225,7.94,73402.8,-5.99,-8.51,-8.55,0,*53
1488956892.18,61226,7.94,73406.5,-5.97,-8.45,-8.45,0,*5A
1488956893.42,61227,7.94,73398.5,-5.99,-8.51,-8.41,0,*54
1488956894.61,61228,7.94,73400.3,-5.97,-8.75,-8.67,0,*57
1488956895.8,61229,7.94,73402.5,-6.01,-8.71,-8.67,0,*5E
1488956897.01,61230,7.94,73396.5,-5.99,-8.55,-8.55,0,*53
1488956898.2,61231,7.94,73398.5,-5.97,-8.55,-8.63,0,*59
1488956899.39,61232,7.94,73400.0,-5.97,-8.63,-8.63,0,*5F
1488956900.58,61233,7.94,73402.3,-5.97,-8.55,-8.55,0,*5E
1488956901.8,61234,7.94,73398.3,-5.97,-8.45,-8.51,0,*5C
1488956903.03,61235,7.94,73402.8,-5.95,-8.55,-8.51,0,*5E
1488956904.24,61236,7.94,73402.8,-5.95,-8.45,-8.37,0,*5C
1488956905.43,61237,7.94,73402.5,-5.97,-8.37,-8.37,0,*5A
1488956906.63,61238,7.94,73400.3,-5.97,-8.45,-8.37,0,*50
1488956907.85,61239,7.94,73398.5,-5.97,-8.55,-8.51,0,*50
1488956909.08,61240,7.94,73400.0,-5.95,-8.51,-8.63,0,*59
1488956910.28,61241,7.94,73398.3,-5.95,-8.63,-8.63,0,*59
1488956911.47,61242,7.94,73402.8,-5.95,-8.75,-8.67,0,*59